Location: Ay?beleni
(36.6500°N, 30.3000°E)
Time: 03:30:01
(UTC+00:00)

Cosmos 389 Rocket - Pass Details

Date: 16 October 2021
Orbit: 438 x 468 km, 81.1° (Epoch: 08 December)

Event Time Altitude Azimuth Distance (km) Brightness Sun altitude
Rises 15:47:21 0° 174° (S) 2,409 6.1 -6.0°
Reaches altitude 10° 15:49:27 10° 167° (SSE) 1,544 5.1 -6.5°
Maximum altitude 15:52:40 43° 95° (E) 630 2.7 -7.1°
Drops below altitude 10° 15:55:54 10° 23° (NNE) 1,558 4.9 -7.7°
Sets 15:58:01 0° 16° (NNE) 2,434 5.9 -8.2°
